GW6385 Weather Reports


time (UTC)temp
F
wind
direction
speed
knots
gust
knots
rain 1hr
in
rain 24hr
in
rain mn
in
humidity
%
barometer
mb
20260510204400 65 7 3.5 12.2 0.00 0.00 0.00 42 290.0
20260510203344 64 19 6.1 12.2 0.00 0.00 0.00 40 300.2
20260510202843 64 16 6.1 12.2 0.00 0.00 0.00 40 296.6
20260510202342 64 8 5.2 12.2 0.00 0.00 0.00 40 308.2
20260510201842 64 10 6.1 12.2 0.00 0.00 0.00 40 275.7
20260510201341 64 33 6.1 12.2 0.00 0.00 0.00 40 297.2
20260510200840 64 23 4.3 12.2 0.00 0.00 0.00 41 299.0
20260510200339 64 18 7.0 12.2 0.00 0.00 0.00 40 310.0
20260510195839 64 30 5.2 12.2 0.00 0.00 0.00 41 331.2
20260510195339 64 9 8.7 12.2 0.00 0.00 0.00 38 383.3
20260510194838 64 7 8.7 12.2 0.00 0.00 0.00 39 428.5
20260510194337 64 17 5.2 12.2 0.00 0.00 0.00 42 419.7
20260510193836 64 7 7.0 12.2 0.00 0.00 0.00 41 464.5
20260510193336 64 2 8.7 12.2 0.00 0.00 0.00 41 503.6
20260510192320 64 16 6.1 12.2 0.00 0.00 0.00 41 337.2
20260510191304 64 19 3.5 12.2 0.00 0.00 0.00 44 377.9
20260510190803 64 7 7.0 11.3 0.00 0.00 0.00 43 500.2
20260510190303 64 1 8.7 11.3 0.00 0.00 0.00 42 551.5
20260510185802 64 22 4.3 11.3 0.00 0.00 0.00 44 336.7
20260510185301 63 0 7.8 11.3 0.00 0.00 0.00 44 364.3
20260510184801 64 16 4.3 11.3 0.00 0.00 0.00 45 270.6
20260510184257 63 18 5.2 11.3 0.00 0.00 0.00 44 293.7
20260510182724 63 11 7.0 11.3 0.00 0.00 0.00 44 325.8
20260510182223 63 6 6.1 11.3 0.00 0.00 0.00 42 304.1
20260510181207 63 9 7.0 12.2 0.00 0.00 0.00 43 332.4
20260510180206 63 22 6.1 9.6 0.00 0.00 0.00 43 309.4
20260510175706 63 12 7.8 9.6 0.00 0.00 0.00 41 326.9
20260510174134 63 6 4.3 9.6 0.00 0.00 0.00 45 418.1
20260510173634 63 4 6.1 9.6 0.00 0.00 0.00 43 361.8
20260510172617 63 21 4.3 9.6 0.00 0.00 0.00 43 301.4
20260510172116 63 41 4.3 11.3 0.00 0.00 0.00 44 287.0
20260510171615 63 27 6.1 11.3 0.00 0.00 0.00 42 278.7
20260510170559 63 27 4.3 11.3 0.00 0.00 0.00 43 292.2
20260510170058 63 23 3.5 11.3 0.00 0.00 0.00 43 268.6
20260510165042 63 36 4.3 11.3 0.00 0.00 0.00 42 293.5
20260510164026 63 24 6.1 11.3 0.00 0.00 0.00 41 303.1
20260510163525 63 9 8.7 11.3 0.00 0.00 0.00 39 333.0
20260510163025 63 22 5.2 11.3 0.00 0.00 0.00 42 335.2
20260510162525 63 24 6.1 13.0 0.00 0.00 0.00 41 296.7
20260510162027 63 23 6.1 13.0 0.00 0.00 0.00 40 305.3
20260510161524 64 61 5.2 11.3 0.00 0.00 0.00 43 315.0
20260510161024 64 45 5.2 11.3 0.00 0.00 0.00 41 309.0
20260510160520 63 36 5.2 13.9 0.00 0.00 0.00 42 302.2
20260510160019 63 29 6.1 13.9 0.00 0.00 0.00 42 302.2
20260510155519 62 47 3.5 12.2 0.00 0.00 0.00 45 325.5
20260510155018 61 36 6.1 12.2 0.00 0.00 0.00 43 298.4
20260510154517 61 33 6.1 13.9 0.00 0.00 0.00 44 287.8
20260510154017 61 35 8.7 13.9 0.00 0.00 0.00 42 286.9
20260510153516 61 29 4.3 11.3 0.00 0.00 0.00 46 300.6
20260510151943 60 46 4.3 10.4 0.00 0.00 0.00 46 307.7
20260510151442 60 55 4.3 10.4 0.00 0.00 0.00 47 313.7
20260510150941 60 52 4.3 12.2 0.00 0.00 0.00 46 307.2
20260510150440 60 48 3.5 12.2 0.00 0.00 0.00 47 305.3
20260510145939 60 48 6.1 11.3 0.00 0.00 0.00 45 297.2
20260510145438 60 39 5.2 11.3 0.00 0.00 0.00 48 301.9
20260510144937 59 57 4.3 11.3 0.00 0.00 0.00 48 313.5
20260510144436 59 46 3.5 10.4 0.00 0.00 0.00 50 311.8
20260510142905 59 41 5.2 10.4 0.00 0.00 0.00 50 272.1
20260510142404 58 40 4.3 11.3 0.00 0.00 0.00 50 278.8
20260510141904 58 37 4.3 11.3 0.00 0.00 0.00 50 280.1
20260510140332 58 36 4.3 11.3 0.00 0.00 0.00 51 291.6
20260510135832 58 43 5.2 11.3 0.00 0.00 0.00 50 298.1
20260510135332 58 45 4.3 10.4 0.00 0.00 0.00 52 306.4
20260510134831 58 36 5.2 11.3 0.00 0.00 0.00 52 295.1
20260510134330 58 32 7.0 11.3 0.00 0.00 0.00 51 282.3
20260510133830 58 27 5.2 11.3 0.00 0.00 0.00 52 276.3
20260510133329 58 22 6.1 13.0 0.00 0.00 0.00 53 267.0
20260510132828 58 27 6.1 13.0 0.00 0.00 0.00 52 271.2
20260510132328 58 25 5.2 13.0 0.00 0.00 0.00 53 289.9
20260510131828 58 29 7.0 13.0 0.00 0.00 0.00 52 273.2
20260510130812 58 25 6.1 13.9 0.00 0.00 0.00 52 289.2
20260510130312 58 35 4.3 13.9 0.00 0.00 0.00 54 292.6
20260510125812 58 32 6.1 12.2 0.00 0.00 0.00 55 280.8
20260510125312 58 30 7.0 13.0 0.00 0.00 0.00 55 274.9
20260510124811 58 28 6.1 13.0 0.00 0.00 0.00 55 283.2
20260510124311 58 27 4.3 10.4 0.00 0.00 0.00 56 277.8
20260510123811 58 30 6.1 10.4 0.00 0.00 0.00 57 270.8
20260510123310 57 29 5.2 10.4 0.00 0.00 0.00 57 271.1
20260510122254 57 24 5.2 10.4 0.00 0.00 0.00 58 275.6
20260510121238 57 31 4.3 10.4 0.00 0.00 0.00 59 254.7
20260510120738 57 32 4.3 10.4 0.00 0.00 0.00 59 257.3
20260510120237 57 26 4.3 10.4 0.00 0.00 0.00 59 260.5
20260510115737 57 24 4.3 10.4 0.00 0.00 0.00 59 248.4
20260510115237 57 31 3.5 10.4 0.00 0.00 0.00 59 252.6
20260510114221 57 21 3.5 10.4 0.00 0.00 0.00 60 261.1
20260510113720 57 42 3.5 10.4 0.00 0.00 0.00 60 285.8
20260510113219 57 43 4.3 10.4 0.00 0.00 0.00 60 289.3
20260510112719 57 43 4.3 10.4 0.00 0.00 0.00 60 302.1
20260510112219 57 51 3.5 10.4 0.00 0.00 0.00 60 316.6
20260510111719 58 60 3.5 10.4 0.00 0.00 0.00 60 327.2
20260510111218 58 67 3.5 10.4 0.00 0.00 0.00 59 309.0
20260510110718 58 39 5.2 10.4 0.00 0.00 0.00 59 283.9
20260510110217 58 48 3.5 10.4 0.00 0.00 0.00 59 291.6
20260510105200 58 48 5.2 10.4 0.00 0.00 0.00 61 286.9
20260510104659 59 43 4.3 10.4 0.00 0.00 0.00 62 283.3
20260510104159 59 44 5.2 10.4 0.00 0.00 0.00 63 284.1
20260510103659 59 44 4.3 10.4 0.00 0.00 0.00 63 284.6
20260510103158 59 42 4.3 10.4 0.00 0.00 0.00 63 280.2
20260510102657 59 37 6.1 11.3 0.00 0.00 0.00 64 277.7
20260510102156 59 37 4.3 11.3 0.00 0.00 0.00 65 279.9
20260510101656 60 37 6.1 12.2 0.00 0.00 0.00 66 283.0
20260510101154 60 25 6.1 12.2 0.00 0.00 0.00 67 280.7
20260510100653 60 28 6.1 12.2 0.00 0.00 0.00 67 269.5
20260510100153 60 37 6.1 12.2 0.00 0.00 0.00 68 271.8
20260510095652 60 33 5.2 12.2 0.00 0.00 0.00 68 268.4
20260510095151 60 31 4.3 12.2 0.00 0.00 0.00 69 267.0
20260510094650 60 38 5.2 12.2 0.00 0.00 0.00 69 273.7
20260510093633 60 22 6.1 12.2 0.00 0.00 0.00 69 261.9
20260510093132 60 24 4.3 12.2 0.00 0.00 0.00 70 251.9
20260510092631 60 24 3.5 12.2 0.00 0.00 0.00 69 250.2
20260510092130 61 18 4.3 12.2 0.00 0.00 0.00 69 264.8
20260510091114 61 19 4.3 12.2 0.00 0.00 0.00 68 260.7
20260510090613 61 26 4.3 12.2 0.00 0.00 0.00 67 252.8
20260510090113 61 22 3.5 12.2 0.00 0.00 0.00 67 240.4
20260510085613 61 31 4.3 12.2 0.00 0.00 0.00 67 251.5
20260510084558 62 31 4.3 12.2 0.00 0.00 0.00 66 253.8
20260510084057 62 27 3.5 12.2 0.00 0.00 0.00 66 261.1
20260510083556 62 35 3.5 12.2 0.00 0.00 0.00 66 266.3
20260510083055 62 43 3.5 12.2 0.00 0.00 0.00 66 262.2
20260510082554 62 32 3.5 12.2 0.00 0.00 0.00 66 249.4
20260510082054 62 26 3.5 12.2 0.00 0.00 0.00 66 250.6
20260510081554 62 32 2.6 12.2 0.00 0.00 0.00 66 264.4
20260510081052 62 38 2.6 12.2 0.00 0.00 0.00 66 265.0
20260510080552 63 32 3.5 12.2 0.00 0.00 0.00 67 272.9
20260510080051 63 40 3.5 12.2 0.00 0.00 0.00 66 285.6
20260510075550 63 46 3.5 12.2 0.00 0.00 0.00 67 290.0
20260510075050 63 37 4.3 12.2 0.00 0.00 0.00 67 287.6
20260510074549 63 47 3.5 12.2 0.00 0.00 0.00 68 302.8
20260510074049 63 57 3.5 12.2 0.00 0.00 0.00 68 300.2
20260510073548 63 44 3.5 12.2 0.00 0.00 0.00 69 287.6
20260510073047 63 44 3.5 12.2 0.00 0.00 0.00 69 292.5
20260510072547 64 53 3.5 12.2 0.00 0.00 0.00 68 298.2
20260510072046 64 46 3.5 12.2 0.00 0.00 0.00 68 290.5
20260510071545 64 36 2.6 12.2 0.00 0.00 0.00 68 294.1
20260510071044 64 51 2.6 12.2 0.00 0.00 0.00 68 311.2
20260510070028 64 55 3.5 12.2 0.00 0.00 0.00 68 314.0
20260510065529 64 56 2.6 12.2 0.00 0.00 0.00 69 308.6
20260510065028 64 55 3.5 12.2 0.00 0.00 0.00 70 300.2
20260510064528 64 48 3.5 12.2 0.00 0.00 0.00 71 285.8
20260510064027 63 52 3.5 12.2 0.00 0.00 0.00 74 274.2
20260510062455 64 7 4.3 12.2 0.00 0.00 0.00 74 230.8
20260510061955 64 17 3.5 12.2 0.00 0.00 0.00 73 257.8
20260510061455 64 18 1.7 12.2 0.00 0.00 0.00 73 293.9
20260510060956 64 27 1.7 12.2 0.00 0.00 0.00 73 364.7
20260510060455 64 105 1.7 12.2 0.00 0.00 0.00 73 478.0
20260510055953 64 109 0.9 12.2 0.00 0.00 0.00 73 484.4
20260510055454 64 110 0.0 12.2 0.00 0.00 0.00 72 485.5
20260510054952 65 110 0.0 12.2 0.00 0.00 0.00 72 486.0
20260510053936 65 110 0.9 12.2 0.00 0.00 0.00 69 486.1
20260510052919 65 110 0.9 12.2 0.00 0.00 0.00 70 485.9
20260510052419 65 110 1.7 12.2 0.00 0.00 0.00 69 486.6
20260510051918 65 110 0.9 12.2 0.00 0.00 0.00 69 487.3
20260510051417 65 110 0.0 12.2 0.00 0.00 0.00 67 487.6
20260510050916 65 110 0.0 12.2 0.00 0.00 0.00 67 487.6
20260510050414 64 110 0.0 12.2 0.00 0.00 0.00 69 487.2
20260510045913 65 110 0.0 12.2 0.00 0.00 0.00 71 486.5
20260510045413 65 110 0.0 12.2 0.00 0.00 0.00 70 486.1
20260510044912 65 110 0.0 12.2 0.00 0.00 0.00 69 486.0
20260510044411 66 110 0.0 12.2 0.00 0.00 0.00 68 485.9
20260510043910 66 110 0.0 12.2 0.00 0.00 0.00 68 486.7
20260510043410 66 110 0.0 12.2 0.00 0.00 0.00 67 487.0
20260510041839 67 110 0.0 12.2 0.00 0.00 0.00 63 487.3
20260510041338 67 110 0.0 12.2 0.00 0.00 0.00 63 486.9
20260510040837 67 110 0.0 12.2 0.00 0.00 0.00 65 485.9
20260510040337 67 110 0.0 12.2 0.00 0.00 0.00 67 485.3
20260510035837 68 110 0.0 12.2 0.00 0.00 0.00 62 486.2
20260510035336 68 110 0.0 12.2 0.00 0.00 0.00 61 486.4
20260510034835 69 110 0.0 12.2 0.00 0.00 0.00 60 486.0
20260510034334 69 110 0.0 12.2 0.00 0.00 0.00 57 484.6
20260510032801 70 108 0.0 12.2 0.00 0.00 0.00 56 473.7
20260510032300 70 108 0.0 12.2 0.00 0.00 0.00 56 469.0
20260510031800 70 110 0.0 12.2 0.00 0.00 0.00 56 460.4
20260510031300 71 109 0.0 12.2 0.00 0.00 0.00 56 438.2
20260510030759 71 110 0.0 12.2 0.00 0.00 0.00 55 396.9
20260510030258 70 83 1.7 12.2 0.00 0.00 0.00 54 327.8
20260510025242 70 49 1.7 12.2 0.00 0.00 0.00 56 265.8
20260510024742 70 28 1.7 12.2 0.00 0.00 0.00 55 253.4
20260510024241 70 33 2.6 12.2 0.00 0.00 0.00 55 262.4
20260510023740 71 31 2.6 12.2 0.00 0.00 0.00 55 259.7
20260510023239 71 37 2.6 12.2 0.00 0.00 0.00 54 267.6
20260510022738 71 42 2.6 12.2 0.00 0.00 0.00 53 263.1
20260510022237 72 33 2.6 12.2 0.00 0.00 0.00 53 252.2
20260510021737 72 29 2.6 12.2 0.00 0.00 0.00 52 246.0
20260510021236 72 27 2.6 12.2 0.00 0.00 0.00 51 253.8
20260510020735 73 29 3.5 12.2 0.00 0.00 0.00 50 265.2
20260510020234 74 26 3.5 12.2 0.00 0.00 0.00 49 275.6
20260510015734 74 29 3.5 12.2 0.00 0.00 0.00 48 289.6
20260510015233 74 24 4.3 12.2 0.00 0.00 0.00 48 313.9
20260510014733 75 22 4.3 12.2 0.00 0.00 0.00 48 342.4
20260510013202 75 5 8.7 15.6 0.00 0.00 0.00 50 556.2
20260510012145 76 0 5.2 9.6 0.00 0.00 0.00 51 827.5
20260510011644 76 359 4.3 9.6 0.00 0.00 0.00 51 894.9
20260510011143 77 357 4.3 9.6 0.00 0.00 0.00 49 1010.4
20260510010642 77 355 7.0 9.6 0.00 0.00 0.00 47 984.1
20260510010141 77 299 0.9 11.3 0.00 0.00 0.00 46 1044.5
20260510005640 78 298 0.0 11.3 0.00 0.00 0.00 47 1043.4
20260510005139 79 298 0.0 11.3 0.00 0.00 0.00 52 1041.5
20260510004639 80 298 0.0 11.3 0.00 0.00 0.00 46 1038.5
20260510004138 80 298 0.0 11.3 0.00 0.00 0.00 45 1034.7
20260510003637 81 296 0.0 11.3 0.00 0.00 0.00 42 1044.5
20260510003137 82 298 0.0 11.3 0.00 0.00 0.00 40 1048.9
20260510002636 82 299 0.0 11.3 0.00 0.00 0.00 41 1050.9
20260510002135 82 299 0.0 11.3 0.00 0.00 0.00 41 1051.0
20260510001635 82 299 0.9 11.3 0.00 0.00 0.00 40 1049.7
20260510001135 82 299 0.0 11.3 0.00 0.00 0.00 41 1048.9
20260510000635 82 298 0.0 11.3 0.00 0.00 0.00 40 1048.5
20260510000135 82 298 0.0 11.3 0.00 0.00 0.00 40 1046.4
20260509235634 81 298 0.0 11.3 0.00 0.00 0.00 42 1044.0
20260509235134 81 295 0.9 11.3 0.00 0.00 0.00 42 1034.6
20260509234633 81 294 0.9 11.3 0.00 0.00 0.00 41 1027.5
20260509234132 81 292 0.9 11.3 0.00 0.00 0.00 40 1019.0
20260509233632 81 291 1.7 11.3 0.00 0.00 0.00 39 1007.8
20260509233131 82 301 1.7 11.3 0.00 0.00 0.00 39 987.3
20260509232630 82 270 0.9 11.3 0.00 0.00 0.00 37 957.5
20260509232129 82 265 3.5 11.3 0.00 0.00 0.00 36 947.8
20260509231628 82 267 2.6 11.3 0.00 0.00 0.00 38 950.3
20260509230611 82 270 2.6 11.3 0.00 0.00 0.00 37 971.3
20260509230110 82 284 3.5 11.3 0.00 0.00 0.00 37 974.1
20260509225054 82 271 2.6 11.3 0.00 0.00 0.00 39 947.9
20260509224553 82 260 3.5 11.3 0.00 0.00 0.00 36 934.3
20260509223537 82 269 3.5 11.3 0.00 0.00 0.00 37 933.3
20260509223037 82 254 4.3 11.3 0.00 0.00 0.00 39 907.1
20260509222537 82 254 5.2 11.3 0.00 0.00 0.00 37 899.5
20260509222037 82 249 6.1 11.3 0.00 0.00 0.00 36 884.2
20260509221020 83 238 7.0 11.3 0.00 0.00 0.00 36 887.2
20260509220519 83 241 7.8 11.3 0.00 0.00 0.00 34 880.4
20260509215504 82 238 7.0 11.3 0.00 0.00 0.00 34 872.6
20260509215004 82 240 7.0 11.3 0.00 0.00 0.00 33 877.8
20260509214504 83 243 7.0 11.3 0.00 0.00 0.00 32 883.4
20260509214004 83 242 5.2 11.3 0.00 0.00 0.00 34 885.3
20260509213504 82 244 6.1 11.3 0.00 0.00 0.00 33 885.3
20260509213003 82 241 5.2 13.9 0.00 0.00 0.00 35 875.5
20260509212503 82 243 8.7 13.9 0.00 0.00 0.00 32 870.7
20260509212002 83 239 9.6 13.9 0.00 0.00 0.00 33 863.7
20260509211502 83 228 7.8 13.9 0.00 0.00 0.00 34 868.6
20260509210446 83 244 7.8 15.6 0.00 0.00 0.00 34 873.8
20260509205430 84 247 8.7 13.9 0.00 0.00 0.00 36 881.2
20260509204929 83 230 9.6 13.0 0.00 0.00 0.00 33 881.0